Погода в Новом Васюгане

Россия / Томская область     58°34′37″N   76°29′56″E
темп.,
°C
ветер,
м/с
пор.,
м/с
влажн.,
%
обл.,
%
осадки,
мм/ч
давл.,
гПа
погр.,
м
19 мая, ср
ср1901:00+9ссв3979100 0.1 1015420
04:00+5ссв39695 0.0 1016289
07:00+4ссв39675 0.0 1018352
10:00+9св36370 0.0 10191333
13:00+12с463398 0.0 10192437
16:00+13ссз4731100 0.0 10172736
19:00+11ссз5649100 0.1 10181798
22:00+7с3854100 0.1 1019329
20 мая, чт
чт2001:00+4с310575 0.1 1021373
04:000с29694 0.0 1022240
07:00+1с27608 0.0 1023249
10:00+5с3537100 0.0 10231179
13:00+8с3429100 0.0 10231482
16:00+11ссз232686 0.0 10221660
19:00+11ссз1126100 0.0 10211634
22:00+6ю2246100 0.0 102210
21 мая, пт
пт2101:00+5ююв245296 0.0 102168
04:00+4ююв2756100 0.0 1022144
07:00+5ю2658100 0.0 1022184
10:00+7ююз3754100 0.0 1022370
13:00+8ююз3960100 0.0 1023489
16:00+12ююз455844 0.0 1022875
19:00+13зюз346484 0.0 1022990
22:00+10ююз278572 0.0 1022154
22 мая, сб
сб2201:00+8ююз31091100 0.0 1022227
04:00+8юз4129373 0.0 1021292
07:00+9юз4138884 0.0 1022367
10:00+17зюз47638 0.0 1021580
13:00+23зюз564711 0.0 1020971
16:00+26зюз56399 0.0 10191565
19:00+26зюз47431 0.0 10181847
22:00+19ююз311675 0.0 1018255
23 мая, вс
вс2301:00+17юз414705 0.0 1018402
04:00+15ююз4168278 0.1 1017419
07:00+16юз41573100 0.1 1016502
10:00+20юз595395 0.1 1015634
13:00+20ю3762100 0.4 1014459
16:00+18з51268100 0.1 1013979
19:00+13сз3994100 4.8 1016720
22:00+13зюз3790100 0.1 1017279